SCP
1 1 2 2 2 1 1 1 1 1 1 1 1 1 1 1 1 0 0 0 0 0 0 0 0 1 1 1 1 1 1 1 0 0 0 0 0 0 0 0 0 0 0
1 1 2 2 2 2 2 1 1 1 1 1 1 1 1 1 0 0 0 0 0 0 0 0 0 1 1 1 1 1 1 1 0 0 0 0 0 0 0 0 0 0 0
2 2 2 2 2 2 2 2 1 1 1 1 1 1 1 1 0 0 0 0 0 0 0 0 0 0 1 1 1 1 1 1 1 1 0 0 0 0 0 0 0 0 0
2 2 2 2 2 3 2 2 2 1 1 1 1 1 1 1 0 0 0 0 0 0 0 0 0 1 1 1 1 1 1 1 1 1 0 0 0 0 0 0 0 0 0
2 2 2 2 2 3 3 2 2 2 1 1 1 1 1 1 1 0 0 0 1 0 0 0 0 1 1 1 1 1 1 1 1 1 0 0 1 1 0 0 0 0 0
3 2 2 2 2 3 3 3 2 2 2 1 1 1 1 1 1 1 1 1 1 1 0 0 0 0 1 1 1 1 1 1 1 1 1 1 1 1 1 1 0 0 0
3 3 2 2 3 3 3 3 3 2 2 2 1 1 1 1 1 1 1 1 1 1 0 0 0 0 0 0 0 0 0 0 1 1 1 1 1 1 1 1 1 0 0
4 3 3 2 2 3 3 3 3 2 2 2 2 1 1 1 1 1 1 1 1 0 0 0 0 0 0 0 0 0 0 0 0 1 1 1 1 1 1 1 1 1 1
4 4 3 2 2 2 3 3 3 2 2 2 2 2 2 2 1 1 1 1 1 0 0 0 0 0 0 0 0 0 0 0 0 0 1 1 1 1 1 1 1 1 1
5 4 3 2 2 2 2 2 2 2 2 2 2 2 2 1 1 1 1 1 1 0 0 0 0 0 0 0 0 0 0 0 0 0 1 1 1 1 1 1 1 1 1
5 4 4 3 2 2 2 2 2 2 2 2 2 2 1 1 1 1 1 1 1 0 0 0 0 0 0 0 0 0 0 0 0 1 1 1 1 1 1 1 1 1 1
4 4 4 3 3 2 2 3 3 3 2 2 2 1 1 1 1 1 1 1 1 0 0 0 0 0 0 0 0 0 0 0 0 0 0 0 0 1 1 1 1 1 1
4 4 3 3 2 2 3 3 4 4 3 3 2 2 2 1 1 1 1 1 0 0 0 0 0 0 0 0 0 0 0 0 0 0 0 0 0 1 1 1 1 1 1
4 4 3 3 2 2 2 3 4 5 4 3 2 2 2 2 2 2 1 1 1 0 0 0 0 0 0 0 0 0 0 0 0 0 0 0 0 0 1 1 1 1 1
4 4 3 3 2 2 2 3 4 4 4 4 3 2 2 2 2 2 1 1 1 0 0 0 0 0 0 0 0 0 0 0 0 0 0 0 0 0 1 1 1 1 1
3 3 3 3 2 2 2 2 2 3 4 4 3 2 2 2 2 2 2 2 1 1 0 0 0 0 0 0 0 0 0 0 0 0 0 0 0 0 1 1 1 1 1
3 2 2 2 2 2 1 1 1 2 2 3 3 2 2 2 2 2 2 2 1 1 1 0 0 0 0 0 0 0 0 0 0 0 0 0 0 0 1 1 0 0 0
2 2 1 1 1 1 0 0 0 1 2 2 2 2 1 1 1 2 2 2 2 1 1 1 0 0 0 0 0 0 0 0 0 0 0 0 0 0 0 0 0 0 0
1 1 0 0 0 0 0 0 0 0 1 2 2 1 1 1 1 1 2 2 2 1 1 0 0 0 0 0 0 0 0 0 0 0 0 0 0 0 0 0 0 0 0
0 0 0 0 0 0 0 0 0 0 0 1 1 1 1 0 0 1 2 2 2 1 0 0 0 0 0 0 0 0 0 0 0 0 0 0 0 0 0 0 0 0 0
0 0 0 0 0 0 0 0 0 0 0 0 0 0 0 0 0 0 1 2 1 1 0 0 0 0 0 0 0 0 0 0 0 0 0 0 0 0 0 0 0 0 0
0 0 0 0 0 0 0 0 0 0 0 0 0 0 0 0 0 0 0 1 1 0 0 0 0 0 0 0 0 0 0 0 0 0 0 0 0 0 0 0 0 0 0
0 0 0 0 0 0 0 0 0 0 0 0 0 0 0 0 0 0 0 1 1 1 0 0 0 0 0 0 0 0 0 0 0 0 0 0 0 0 0 0 0 0 0
0 0 0 0 0 0 0 0 0 0 0 0 0 0 0 0 0 0 1 1 1 1 0 0 0 0 0 0 0 0 0 0 0 0 0 0 0 0 0 0 0 0 0
0 0 0 0 0 0 0 0 0 0 0 0 0 0 0 0 0 0 1 2 2 1 0 0 0 0 0 0 0 0 0 0 0 0 0 0 0 0 0 0 0 0 0
0 0 0 0 0 0 1 0 0 0 0 0 0 0 0 0 0 0 1 2 2 1 0 0 0 0 0 0 0 0 0 0 0 0 0 0 0 0 0 0 0 0 0
Wind_Speed
7 7 8 7 8 8 8 8 8 8 8 8 8 8 8 8 8 8 8 8 8 8 8 7 7 7 7 7 6 5 5 4 4 4 4 4 4 4 3 2 1 3 6
7 8 9 8 8 8 8 8 8 8 8 7 7 8 8 8 8 8 8 8 8 8 8 8 7 7 7 6 6 6 5 4 3 3 2 3 3 2 2 2 2 3 3
7 8 10 8 8 8 8 8 8 8 8 7 7 7 7 7 7 7 7 8 8 8 8 8 8 7 7 6 6 6 5 4 2 0 3 2 3 3 1 1 0 1 1
7 7 8 9 9 9 9 8 8 8 8 7 7 7 7 7 7 7 7 7 8 8 8 8 8 7 6 5 5 5 5 4 3 3 3 1 1 3 1 1 2 2 1
7 7 9 9 9 9 9 9 8 8 8 7 7 7 7 7 7 7 7 7 7 7 7 8 7 7 7 6 5 4 4 4 3 4 2 1 1 2 1 1 2 3 3
7 7 9 9 9 9 9 8 8 7 8 7 7 7 7 7 8 8 7 7 7 7 7 7 7 7 7 6 6 5 5 4 5 2 2 2 1 1 2 3 3 3 3
7 7 9 9 9 9 8 8 8 8 8 7 7 7 7 7 8 8 8 7 7 7 6 7 7 7 6 6 6 6 5 5 4 2 2 2 2 2 3 4 4 5 4
7 7 8 10 9 9 8 8 8 8 8 8 8 8 8 8 8 8 8 7 7 7 7 7 6 7 6 6 6 6 6 6 3 2 2 2 3 3 4 4 4 5 5
6 6 6 8 9 9 9 8 8 8 8 8 8 8 8 8 8 9 8 8 8 7 7 7 7 7 7 6 6 6 6 6 4 2 3 2 4 4 4 5 5 5 5
6 6 6 6 6 7 8 9 8 8 8 8 8 8 7 7 7 8 8 8 8 8 7 7 7 6 6 6 6 6 5 5 3 2 2 3 5 5 5 5 5 5 5
5 5 5 5 5 6 6 7 7 7 7 6 6 6 4 3 4 4 8 8 8 8 7 7 7 6 5 4 5 6 4 3 3 3 3 6 6 5 5 5 5 5 5
6 5 4 5 5 5 4 4 4 4 4 4 4 4 3 3 3 3 5 6 7 6 5 7 6 4 3 2 3 3 2 4 3 2 4 7 6 6 5 5 5 6 6
6 5 5 4 4 4 3 3 3 2 3 3 4 3 3 2 2 2 2 2 3 3 3 4 3 3 3 3 3 3 4 3 3 3 5 8 7 6 6 6 6 6 6
6 5 5 4 4 4 3 3 3 2 2 2 3 3 2 2 2 2 2 2 2 2 3 3 3 4 4 4 4 4 4 3 3 3 5 9 8 8 7 7 7 7 7
6 6 5 4 4 4 3 2 2 2 2 3 2 2 3 2 2 2 2 2 3 3 3 3 3 4 4 4 4 4 4 4 3 3 3 8 9 9 9 9 9 8 8
6 6 5 5 4 4 3 2 2 2 2 2 2 3 3 2 2 2 2 2 3 3 3 3 3 3 3 3 4 4 4 3 3 3 3 4 7 9 10 10 10 10 10
6 6 5 5 4 4 3 3 2 2 2 2 2 2 2 2 2 2 2 2 3 3 3 3 3 3 3 3 3 4 3 4 3 3 4 3 3 7 9 10 11 11 11
6 6 5 4 4 4 3 3 2 2 2 2 2 2 3 3 2 2 2 2 3 2 2 3 3 3 3 3 3 3 3 2 3 4 3 4 3 3 6 9 10 11 11
5 6 5 5 4 4 3 2 2 1 1 1 1 1 2 2 2 2 2 2 2 2 2 3 3 3 3 3 2 2 2 2 3 3 4 4 4 4 4 6 8 10 11
5 5 5 5 4 4 3 2 2 1 1 1 1 1 1 2 2 2 1 2 2 2 2 2 3 3 2 2 2 1 1 1 1 2 3 3 4 5 5 5 4 5 9
5 5 5 5 4 4 2 2 1 1 1 1 0 1 1 1 1 1 1 1 1 1 2 3 2 2 2 2 2 1 1 1 1 1 2 2 3 4 4 5 4 4 4
5 5 5 4 4 4 3 2 1 1 0 1 0 0 1 1 1 1 1 1 1 1 1 2 2 2 1 2 3 3 2 2 2 0 1 2 3 2 3 4 4 4 4
5 5 4 5 4 4 4 2 2 2 1 2 1 1 1 1 1 1 1 1 1 1 1 2 2 2 2 1 2 3 3 2 2 1 0 1 2 2 2 2 3 4 4
5 4 5 5 4 4 4 4 4 3 2 2 1 1 1 2 2 2 2 2 1 1 1 1 1 2 2 2 1 1 2 3 3 3 2 1 2 2 2 2 3 3 4
4 4 4 4 4 4 4 4 4 3 2 1 2 2 2 2 2 2 2 2 2 1 1 2 2 2 2 2 2 2 2 2 4 4 4 3 3 2 2 3 2 2 3
4 4 4 5 4 4 4 4 5 4 4 3 3 3 2 2 2 2 3 3 3 2 2 2 3 3 3 3 3 3 3 3 3 4 5 5 5 3 3 3 3 3 2
Wind_Direction
146 138 125 127 121 117 112 108 104 101 97 94 92 90 86 81 78 75 71 66 62 59 58 57 55 54 54 53 53 57 64 72 67 73 76 74 71 70 75 69 17 106 81
137 137 127 127 120 117 111 106 101 99 94 91 90 87 82 78 76 74 69 66 62 58 55 53 51 50 50 49 47 49 51 65 71 75 106 142 112 74 73 62 358 39 73
136 139 137 124 118 111 106 103 100 97 94 90 87 83 79 75 74 71 67 63 60 57 53 50 47 45 44 44 42 40 42 49 54 59 233 206 136 123 97 100 96 20 42
136 139 133 123 119 112 105 101 99 96 93 89 86 84 80 76 74 70 66 63 59 55 51 48 44 41 39 38 36 33 32 32 18 286 244 241 165 118 200 251 238 239 246
136 136 123 122 119 113 108 102 99 98 95 89 84 81 78 75 72 68 66 62 57 52 48 46 42 39 36 32 26 25 22 17 327 270 282 286 260 107 254 278 267 252 248
135 133 124 123 118 112 107 103 99 98 95 90 85 81 77 72 71 67 64 59 54 49 46 42 38 35 33 29 25 21 17 1 287 293 309 298 299 85 273 271 266 259 250
131 129 129 123 117 112 108 102 98 94 91 89 86 82 76 72 69 64 59 57 53 48 43 39 34 31 28 24 21 19 13 338 310 316 311 312 359 349 294 282 271 262 256
127 127 130 122 116 112 107 101 95 89 86 83 81 78 74 71 69 64 58 56 52 46 43 38 32 29 24 23 20 18 10 332 306 318 311 319 12 332 307 303 293 278 267
125 124 125 133 126 113 102 97 92 87 83 79 77 75 73 71 68 64 58 52 50 44 40 36 33 31 27 22 18 14 4 333 311 339 325 338 359 315 307 302 302 293 278
125 126 128 129 132 131 119 99 92 86 82 79 74 71 73 77 74 64 58 50 46 42 38 36 33 29 25 22 17 8 343 295 336 340 335 8 347 319 314 312 310 303 297
127 129 135 134 129 129 122 114 108 97 85 88 85 77 80 80 77 73 54 45 43 39 37 35 32 28 15 37 27 360 312 334 355 352 358 7 342 329 325 325 322 313 306
148 139 136 134 132 127 123 124 115 105 97 83 79 81 74 69 60 53 72 50 43 36 38 35 26 19 345 11 33 330 340 350 351 359 20 7 347 342 338 341 335 325 313
154 145 135 132 131 127 124 119 107 98 94 83 69 66 70 68 64 54 58 63 47 30 31 29 12 16 9 10 357 1 1 352 353 4 22 16 2 355 349 347 345 338 332
156 150 141 138 132 121 119 117 110 101 88 77 66 48 52 58 49 48 44 35 28 22 15 11 5 15 12 12 6 3 4 356 355 0 27 24 15 11 6 0 355 352 348
161 154 147 145 138 131 119 116 111 98 88 83 68 50 37 45 48 43 43 32 26 19 13 6 5 10 9 10 11 6 4 3 1 4 27 34 22 17 16 12 10 8 5
166 159 153 151 141 134 124 109 105 95 96 79 67 50 37 35 39 32 42 33 25 15 7 359 8 5 7 7 10 12 9 8 10 8 5 29 35 26 22 19 15 10 9
166 158 153 148 143 138 122 105 93 93 91 77 64 46 37 28 22 30 34 32 23 9 3 3 8 4 13 10 16 16 15 11 10 13 10 8 24 36 31 25 23 19 14
163 156 149 148 144 137 128 119 97 87 83 70 56 44 34 27 16 24 29 31 19 10 5 7 2 1 10 3 8 17 19 19 18 24 25 21 18 16 33 33 28 23 17
168 160 154 150 147 138 133 126 109 91 89 74 54 40 28 24 18 26 31 29 23 18 15 9 9 359 3 359 359 8 16 19 23 31 35 33 30 22 19 36 35 29 22
165 159 153 146 148 147 146 141 136 126 150 121 66 40 17 18 15 17 31 30 24 22 17 11 13 9 360 347 333 347 11 19 21 28 31 38 34 28 22 17 18 28 26
162 159 157 155 156 162 166 178 175 166 164 140 98 18 356 354 359 359 359 16 13 17 13 5 358 360 8 346 296 275 207 179 23 33 21 25 33 28 22 17 12 5 10
173 171 166 166 168 176 173 164 142 107 32 334 191 304 297 293 299 307 320 332 356 352 1 4 353 329 350 359 322 298 279 205 165 55 13 12 10 15 13 12 11 9 0
183 182 176 176 180 181 172 160 157 168 190 226 228 238 254 266 262 262 269 287 312 324 335 341 335 329 325 353 351 316 304 310 322 211 253 323 343 344 348 353 359 1 357
187 183 182 179 183 184 185 193 197 208 214 240 260 264 266 264 265 253 255 259 271 276 290 299 310 300 297 300 288 291 300 314 294 293 234 243 305 308 317 320 332 347 350
172 175 179 176 180 186 192 202 208 220 232 245 255 258 264 253 252 249 253 255 255 255 265 280 280 273 271 278 282 283 265 258 258 271 282 286 282 276 292 295 299 314 333
157 166 170 173 177 183 192 205 216 222 230 236 249 257 257 251 248 245 247 247 248 247 248 255 259 256 255 259 264 266 270 267 267 266 277 289 289 285 281 272 278 292 312